Find Starlink 36983

NORAD ID: 68323 Int'l Des: 2026-059 Owner: SPXS Country: US Constellation: starlink operational
LEOCIRCULAR

現在のビュー

3D地球を読み込み中...

About Starlink 36983

Starlink 36983 (NORAD 68323) is a starlink constellation satellite (v2 mini) launched Mar 22, 2026 by SPXS of US. It operates in LEO, CIRCULAR orbit with a mass of 575.00 kg.

Starlink 36983について

説明を読み込み中...

次回通過

Passes for default location (London). Set your location on the main map for personalized predictions.

高度履歴

Loading altitude history...

軌道要素

1 68323U 26059C 26171.41650196 .00017574 00000-0 52975-3 0 9998
2 68323 53.1581 226.1241 0000992 79.3844 280.7271 15.34417718 13967
Epoch: Jun 20, 2026 • Age: 33 hours

現在のステータス

高度 462.4 km
速度 7.64 km/s
衛星直下点 10.56°N, 34.51°E
打ち上げ日 Mar 22, 2026
運用期間 0.2 years
タイプ internet

技術仕様

分類 Payload
質量 575.00 kg
乾燥質量 530.00 kg
総質量 575.00 kg
長さ 0.30 m
直径 4.10 m
スパン 29.00 m
形状 Box + pan
製造者 SPXS
バスタイプ Starlink V2MO
フェーズステータス In Orbit
所有者/国 SPXS/US

Most Searched